Location: Cieszkowy
(50.3290°N, 20.5336°E)
Time: 00:01:57
(UTC+00:00)

CZ-4C R/B - Pass Details

Date: 15 June 2024
Orbit: 526 x 1467 km, 63.4° (Epoch: 18 July)

Event Time Altitude Azimuth Distance (km) Brightness Sun altitude
Rises 00:58:11 0° 274° (W) 3,082 4.9 -10.1°
Reaches altitude 10° 01:00:38 10° 287° (WNW) 2,292 4.3 -9.9°
Maximum altitude 01:05:11 28° 346° (NNW) 1,603 4.2 -9.5°
Drops below altitude 10° 01:10:44 10° 43° (NE) 2,844 6.6 -9.0°
Sets 01:14:09 0° 55° (NE) 3,978 7.3 -8.7°
